RH
32 33 48 93 101 95 99 100 99 100 100 101 96 52 42 74 72 55 48 46 42 41 34 22 13 10 12 10 12 14 18 22 25 27 25 30 44 61 60 58 58 52 47 42 41 36 34 31 27 29 26 25 29 35 40 45 50 58 55 47 42 42 46 48 46 48 66 79 81 73 63 59 56 57 59 58 48 60 66 54 49 44 49 45 62 70 67 92 103 90 64 58 64 66 66 52 46
30 34 50 93 102 99 101 98 101 99 101 100 94 60 39 68 80 61 51 53 47 44 38 25 15 10 12 10 12 15 18 20 25 28 28 29 32 50 58 68 70 56 47 34 29 30 31 32 35 35 30 24 21 22 24 28 33 38 41 42 45 51 54 47 44 48 63 72 68 62 64 65 66 73 78 73 57 57 56 49 47 39 57 67 67 73 83 96 94 80 62 72 80 71 69 62 56
31 35 49 90 102 99 101 98 101 99 102 99 101 77 39 59 84 75 61 58 52 46 41 29 17 10 11 10 10 14 18 19 23 27 30 31 32 46 58 69 66 47 40 31 27 32 35 37 41 38 33 32 30 30 28 28 29 34 39 43 48 50 48 41 41 41 44 43 44 58 71 73 72 73 67 63 60 58 65 68 58 50 79 94 74 67 78 81 78 72 64 86 94 80 80 77 71
35 34 45 86 103 98 101 99 100 99 103 98 104 84 38 46 70 82 72 60 54 47 43 32 18 11 11 11 10 14 18 18 20 25 28 31 31 36 45 54 49 36 34 30 30 33 38 40 41 40 37 36 37 39 40 40 38 38 38 39 40 38 36 35 34 36 45 55 70 87 90 87 80 78 69 59 55 59 79 83 76 82 99 104 92 83 77 71 71 70 68 89 97 94 93 88 86
39 33 45 85 102 99 100 99 100 100 105 98 106 83 37 37 52 79 82 63 56 48 45 34 19 12 11 11 10 13 17 18 18 20 24 28 31 32 34 38 35 31 31 29 31 36 41 42 41 45 46 46 45 46 47 48 45 41 39 38 38 37 35 35 45 62 71 71 86 96 91 86 82 89 88 74 66 69 85 91 98 103 102 101 102 94 77 67 69 75 80 92 97 101 94 87 97
44 43 63 94 101 100 100 99 100 100 103 97 106 82 36 34 41 71 88 71 60 50 46 36 21 11 10 11 10 11 14 17 18 18 20 23 28 34 34 33 31 29 29 29 31 37 42 42 43 45 48 51 50 51 51 52 52 49 49 53 60 63 56 52 68 84 73 59 67 69 65 65 68 91 95 86 88 92 97 99 102 98 101 100 89 80 72 73 79 88 92 97 98 98 84 77 100
48 50 78 101 99 101 100 99 100 100 102 98 105 82 39 36 36 58 86 81 66 53 47 38 22 11 11 11 10 11 12 16 18 17 18 21 26 31 34 33 30 27 27 28 31 37 42 45 48 48 47 47 47 47 46 47 49 53 57 62 71 78 78 76 87 91 75 71 83 75 65 62 65 85 89 87 95 97 95 97 100 94 101 98 86 88 92 96 99 102 101 103 99 94 89 83 100
46 48 82 103 99 101 100 99 100 100 102 101 104 86 51 40 35 46 79 88 72 56 47 39 25 12 10 11 10 9 11 15 17 18 20 22 25 28 32 30 27 27 26 27 32 37 41 45 50 53 52 49 53 53 46 46 46 47 51 60 71 85 92 89 96 92 77 78 90 83 65 62 64 71 69 69 75 75 75 78 88 89 94 99 98 96 92 92 89 90 88 88 82 79 91 96 102
45 49 81 104 100 99 100 99 101 100 100 101 102 97 70 44 33 39 68 88 76 57 48 41 26 13 10 11 10 9 10 15 17 18 21 25 27 29 30 29 26 25 26 26 30 39 44 48 52 60 71 72 76 74 61 55 54 53 54 69 86 97 94 86 86 68 59 68 74 77 69 73 75 66 60 58 58 59 61 61 69 78 85 89 84 78 77 78 73 67 63 63 62 73 90 89 91
44 61 82 102 103 97 99 99 101 101 99 100 99 103 87 54 36 36 56 79 75 57 48 43 28 15 11 11 9 9 10 13 17 17 23 29 29 29 28 28 26 24 26 27 30 39 46 51 60 74 92 97 97 97 89 80 79 83 84 93 96 86 71 66 66 47 60 80 77 89 93 94 88 75 70 62 57 59 65 63 63 71 77 74 66 67 70 67 62 58 57 54 54 78 98 89 82
44 82 93 99 104 98 99 100 100 100 100 98 98 102 99 81 54 40 51 66 71 58 49 45 29 17 11 11 10 8 10 12 16 16 25 32 29 26 26 27 27 27 28 30 34 41 48 56 67 75 83 84 76 76 91 101 100 96 93 100 96 79 62 56 55 45 69 88 85 100 102 99 97 92 87 71 66 73 75 65 61 67 67 64 61 61 56 48 46 50 59 61 56 69 87 91 92
41 83 98 98 101 100 100 101 99 100 102 97 100 101 102 100 68 44 50 59 67 58 50 47 31 20 14 11 10 9 9 10 14 15 23 34 33 28 26 30 29 29 32 36 40 44 52 58 63 59 54 52 45 48 66 83 86 75 67 73 78 86 86 77 64 43 57 81 89 96 88 87 91 88 84 73 65 70 74 64 60 59 51 48 45 42 38 38 46 57 72 76 63 63 78 93 102
29 59 91 101 99 100 100 100 100 101 102 99 100 101 104 99 62 40 47 53 64 58 50 50 34 23 17 12 11 9 9 9 12 13 19 30 33 29 26 31 32 32 38 42 46 51 57 60 63 61 59 63 68 79 80 73 64 54 55 54 54 77 88 84 80 64 67 81 82 84 78 72 74 74 71 66 58 58 64 54 43 38 34 32 27 29 40 59 77 82 89 94 79 75 93 100 101
31 53 79 96 99 100 101 100 100 100 100 101 99 102 106 82 43 36 42 48 63 59 49 51 39 26 21 15 11 9 9 8 10 11 14 21 27 29 26 28 34 38 44 51 59 69 77 82 88 89 90 94 96 97 82 65 58 60 78 78 66 69 58 52 70 74 72 74 72 72 67 57 58 66 58 50 49 45 42 33 27 26 25 25 29 39 58 83 95 82 73 85 94 98 102 93 87
37 48 58 84 101 99 100 100 100 102 99 101 99 102 103 60 28 35 37 44 61 58 49 52 43 31 26 19 13 10 10 8 9 11 12 16 20 28 31 31 42 52 58 70 83 92 96 96 99 102 102 104 97 84 67 61 71 85 94 80 62 54 39 37 51 53 54 65 69 59 52 52 55 60 51 37 36 31 26 26 26 27 30 43 56 64 75 81 70 50 34 40 64 82 81 78 83
27 34 58 91 102 100 100 98 100 102 99 102 98 103 97 47 23 33 33 42 59 58 50 53 48 36 31 24 17 11 10 9 8 10 10 14 16 24 35 35 45 59 64 80 99 102 98 95 97 102 102 102 94 83 82 78 77 82 72 52 41 36 34 44 48 40 43 53 55 51 53 56 51 49 43 32 29 29 27 27 28 32 42 53 58 59 63 55 35 23 20 25 36 49 61 80 96
24 30 68 99 99 102 102 98 101 99 101 101 95 105 90 40 24 30 31 40 56 61 51 53 51 40 35 28 23 14 10 10 7 10 9 12 14 18 30 34 44 59 73 91 102 99 97 98 99 99 101 103 89 72 75 69 57 51 41 39 43 36 28 36 41 34 35 37 38 47 51 46 40 35 33 29 27 29 26 25 27 31 35 34 31 30 31 25 18 21 33 46 52 55 64 72 74
23 24 58 97 100 103 103 100 101 99 104 99 92 100 73 34 27 26 29 38 54 66 53 50 52 44 39 32 29 19 11 11 8 10 9 10 13 16 22 27 36 58 87 101 99 98 99 100 100 100 99 93 72 50 48 46 40 37 31 34 38 33 24 27 35 31 29 31 31 35 35 32 32 29 28 27 24 25 24 25 26 26 25 23 21 19 19 18 22 36 49 53 50 47 45 42 41
22 23 45 81 88 91 101 100 99 99 103 99 97 96 65 35 29 22 29 39 51 69 56 47 50 47 43 35 33 25 13 11 9 9 9 9 14 18 17 23 41 67 94 105 105 100 92 95 102 95 73 50 36 28 29 28 27 28 28 27 26 26 27 29 32 30 27 27 26 27 30 30 30 30 32 30 27 27 27 28 26 21 20 20 20 18 22 29 36 42 42 36 33 34 34 34 38
27 39 54 76 84 93 103 101 100 100 102 101 99 101 75 38 26 21 30 39 47 69 64 45 45 49 46 39 37 31 17 12 10 9 9 9 13 17 16 28 57 75 77 77 83 85 88 99 93 69 42 23 20 23 22 21 23 25 25 23 23 24 26 26 25 26 25 25 26 28 31 32 33 35 35 32 30 28 28 29 23 16 17 18 21 21 24 32 36 35 32 35 38 39 36 34 35
32 54 73 92 101 97 92 99 104 98 102 101 99 106 78 32 23 25 30 38 46 70 75 54 44 46 48 43 39 36 22 13 11 9 9 9 10 13 15 26 49 58 49 46 56 67 75 72 53 38 29 19 18 21 20 20 22 22 23 23 22 22 22 22 22 22 23 25 28 30 32 34 35 35 35 34 31 31 32 28 20 17 19 23 25 25 26 29 30 32 38 42 38 32 29 28 29
30 46 62 81 97 83 61 86 106 98 104 102 101 105 64 25 27 27 29 38 43 70 85 69 50 43 48 45 41 40 27 15 13 10 9 9 8 10 12 18 28 33 35 44 52 49 39 26 20 22 20 16 18 19 19 21 20 18 20 20 19 19 19 19 20 20 22 25 27 30 31 34 35 36 38 38 35 34 33 26 18 18 23 26 26 26 28 28 30 35 36 33 28 25 25 25 25
22 37 45 50 76 77 57 84 104 97 104 102 103 102 56 25 32 27 29 36 37 62 84 78 59 42 46 48 42 43 32 18 14 11 9 9 8 9 10 13 19 22 28 40 40 27 17 14 16 16 14 17 20 18 18 19 18 17 18 18 18 19 19 19 19 20 21 23 26 28 31 34 35 40 44 44 46 38 25 23 21 17 25 32 28 26 25 28 41 44 36 32 28 21 22 24 24
15 25 35 41 62 64 55 78 97 99 103 100 100 103 66 28 31 31 27 30 32 55 77 79 67 45 43 49 44 44 37 22 15 13 10 9 9 9 10 11 15 19 24 28 22 15 13 14 14 14 15 17 18 19 20 19 17 18 18 18 19 18 19 19 20 20 21 22 25 27 29 32 36 46 49 50 57 43 27 37 36 24 38 50 35 26 27 40 60 56 41 37 33 26 24 25 26
15 20 36 57 67 55 48 63 85 97 97 100 100 103 85 43 39 44 30 30 32 49 72 78 70 50 42 48 46 44 40 25 17 15 11 10 9 8 10 10 13 14 15 16 14 13 14 14 15 15 16 15 16 18 18 18 17 18 19 19 19 19 20 20 21 21 22 23 25 26 26 32 44 54 53 55 60 44 30 42 40 28 53 72 49 30 34 46 58 48 37 40 38 34 32 32 35
15 21 38 66 79 70 70 75 85 96 92 101 102 100 98 70 64 62 36 32 35 43 66 75 68 51 41 46 48 44 40 28 20 18 13 11 10 9 9 9 11 12 12 13 13 14 14 15 16 15 17 17 17 17 17 18 18 19 19 20 20 20 21 21 22 23 23 24 27 29 29 37 49 53 52 55 59 47 34 35 33 29 49 70 53 35 39 45 51 44 34 35 34 33 33 33 35
12 18 27 54 78 74 80 93 95 99 97 99 101 101 102 88 84 71 39 32 36 39 55 65 62 51 43 45 48 45 41 30 22 21 15 12 11 9 10 9 10 11 12 13 13 14 15 15 17 17 18 18 18 18 19 19 18 19 18 19 19 20 21 21 22 23 24 26 30 31 32 41 45 48 52 52 52 48 46 42 37 40 48 55 44 35 46 52 50 43 32 29 29 30 30 33 38
9 14 16 33 61 58 67 99 104 102 102 97 100 102 98 95 95 76 45 33 34 37 47 55 54 51 50 48 48 46 41 32 25 24 19 14 12 10 10 9 9 11 11 13 14 14 15 16 16 17 18 19 20 20 20 21 21 21 19 19 19 19 20 21 22 23 24 26 30 31 35 42 44 50 53 53 58 55 57 56 42 42 48 44 37 37 51 55 46 35 30 29 30 32 37 44 52
6 12 16 22 45 47 55 89 101 103 105 99 101 102 97 97 98 82 52 34 31 36 44 51 49 48 58 57 49 47 42 34 28 27 23 17 14 11 10 10 9 10 10 12 13 14 15 15 16 17 18 18 19 20 21 23 26 26 22 20 19 20 20 21 22 22 24 28 32 33 35 41 44 49 48 56 72 66 65 70 51 39 42 40 39 41 44 49 50 41 34 36 41 45 50 56 64
7 9 13 18 38 49 62 91 102 104 104 99 101 101 101 100 100 93 64 36 28 35 43 49 47 46 61 65 53 48 43 35 31 30 27 21 16 12 11 11 10 10 10 11 12 13 14 15 16 16 17 18 19 20 21 23 29 32 27 22 20 20 21 22 23 22 23 27 32 32 33 39 41 40 42 53 67 65 62 65 54 45 48 49 48 45 43 50 60 55 47 49 54 57 56 57 63
10 9 9 16 39 47 58 87 101 102 100 100 104 101 100 99 101 100 75 44 27 30 41 46 46 46 61 70 57 49 44 35 33 33 31 25 20 15 11 12 11 10 10 10 11 12 13 14 15 16 16 18 18 19 20 23 32 36 29 22 20 21 21 22 22 22 23 25 32 37 34 39 41 34 39 49 56 60 58 56 59 62 64 60 52 50 47 47 52 51 48 51 56 60 60 59 63
13 10 8 19 43 39 44 78 95 102 102 99 104 101 99 97 101 101 80 54 32 28 37 43 46 46 62 74 61 51 45 37 35 36 36 30 24 19 14 13 12 11 11 11 11 12 12 13 14 15 16 17 18 19 19 24 35 36 27 22 20 21 21 22 22 22 24 24 32 40 36 34 35 33 41 52 55 53 52 63 78 83 78 66 57 58 55 47 44 44 43 50 58 62 66 68 72
17 15 9 22 41 30 46 93 99 95 100 100 101 99 101 99 101 103 86 61 40 32 36 42 45 43 59 76 64 55 48 39 37 38 40 35 29 24 17 15 14 12 12 11 12 12 12 13 14 16 15 16 17 18 19 26 34 32 25 22 21 21 21 22 22 22 23 25 28 33 34 32 31 32 40 47 51 48 50 68 84 86 82 76 72 71 65 54 46 47 49 54 60 66 72 74 79
14 16 9 19 37 24 40 91 104 99 99 101 102 98 102 101 99 103 91 67 47 40 40 42 44 40 53 72 67 59 52 42 39 41 43 40 33 28 22 18 17 15 13 12 12 13 13 13 14 15 15 17 18 21 22 23 29 29 25 23 20 21 22 21 22 21 22 25 27 28 30 32 31 34 40 37 39 46 51 65 82 90 83 76 76 74 72 65 54 54 59 62 65 70 77 80 85
9 14 10 18 34 26 31 67 91 99 100 98 100 98 101 99 96 102 91 67 52 51 49 44 43 40 48 66 67 62 54 46 42 42 45 44 37 32 27 22 20 18 15 14 13 13 13 14 14 14 16 18 21 32 34 23 25 30 25 22 22 21 20 20 21 21 22 23 25 27 29 31 30 33 42 39 35 42 49 58 78 94 86 70 66 68 75 80 72 65 62 60 62 66 71 76 86
6 8 15 29 36 25 31 62 85 98 101 99 98 99 102 99 99 103 88 67 60 61 59 52 45 37 42 62 68 60 54 50 46 43 46 45 40 36 33 28 25 21 19 16 15 15 14 14 15 16 21 22 31 54 53 28 24 29 24 21 22 20 18 19 20 20 22 23 23 24 26 31 31 30 36 37 32 35 43 51 68 90 96 82 68 64 71 81 84 83 75 63 56 61 69 74 86
8 7 15 34 39 24 25 57 86 98 97 97 101 100 99 99 101 102 86 74 75 77 77 75 65 41 36 61 72 55 47 51 50 44 45 45 42 39 36 34 30 25 22 19 17 16 15 14 15 18 24 28 42 59 50 25 20 25 23 21 21 19 19 18 19 19 20 22 24 24 24 28 31 29 31 34 36 37 39 42 55 83 102 93 73 63 64 73 81 85 89 82 61 57 72 79 85
8 7 11 25 32 28 30 46 62 74 82 93 105 102 95 97 101 103 89 76 84 93 94 96 93 61 35 58 79 57 40 47 53 48 45 45 43 40 38 36 34 30 26 23 20 18 16 15 16 18 21 27 42 49 36 21 19 22 22 21 21 20 20 19 18 18 19 21 23 24 24 26 29 31 32 35 39 41 39 38 45 70 93 92 80 68 61 65 73 77 85 86 67 55 65 73 75
7 7 9 16 23 31 47 57 54 65 82 94 103 99 96 100 104 106 89 71 83 100 99 100 107 79 40 56 86 71 44 40 52 54 47 44 43 41 39 36 36 34 30 27 24 20 18 16 16 17 16 20 32 36 27 20 19 21 23 22 22 21 21 22 22 19 18 21 22 23 24 26 29 31 32 32 33 34 34 33 37 52 69 72 69 68 68 65 63 64 67 73 71 61 56 58 65
8 8 6 11 19 25 39 55 67 84 93 95 100 98 100 102 103 108 90 70 84 101 100 100 105 79 42 58 94 89 58 38 46 55 50 46 43 41 42 37 35 36 34 31 28 24 21 19 18 17 16 17 22 25 23 20 21 23 24 22 21 21 21 24 27 23 19 20 22 22 23 25 28 29 30 27 26 28 31 33 34 40 50 54 52 55 65 65 59 56 55 62 70 67 58 53 61
8 9 8 11 19 27 46 70 89 102 100 97 101 99 101 101 101 106 88 69 81 98 100 100 101 80 45 53 90 100 76 44 40 52 53 49 43 39 42 39 35 35 35 34 31 28 25 23 23 20 18 18 19 21 24 23 21 23 25 23 23 26 25 24 26 26 23 23 24 24 22 23 25 27 29 30 27 28 36 44 44 39 42 48 45 43 48 54 60 59 50 47 55 63 67 61 59
8 9 9 13 18 30 66 96 99 99 99 100 102 99 99 98 100 103 86 69 77 93 101 100 101 92 63 49 66 88 86 56 40 49 53 51 47 40 39 41 38 34 34 35 33 31 30 27 27 26 22 21 21 23 28 28 25 25 27 26 26 30 32 26 24 26 25 25 29 30 25 21 23 25 30 34 32 29 33 41 43 38 36 37 38 39 41 48 61 66 56 48 52 60 71 75 68
9 9 7 12 16 28 67 98 99 100 101 100 102 101 99 98 99 102 88 66 68 88 102 104 101 100 89 65 49 63 81 66 49 54 57 52 50 45 39 40 41 37 33 34 34 32 33 32 30 31 28 25 26 29 33 33 32 34 35 33 30 31 34 30 24 24 24 26 31 32 26 22 22 23 27 31 33 32 31 33 36 35 34 33 33 35 36 41 53 63 63 61 60 56 57 65 62
9 10 8 9 14 30 58 75 83 98 103 99 100 100 102 102 97 102 94 66 64 91 105 103 98 97 101 90 57 49 69 70 60 63 65 56 51 49 43 39 40 42 36 32 35 35 33 35 34 35 34 31 32 36 41 40 38 42 41 37 35 34 36 35 32 29 25 25 28 29 28 26 23 21 24 28 31 34 33 34 35 34 34 33 35 35 32 35 42 48 51 53 55 49 44 46 46
9 9 9 10 18 46 71 74 80 98 103 99 99 99 100 101 97 101 98 73 67 92 104 101 100 97 100 100 73 52 62 69 65 69 72 63 55 50 48 44 39 43 44 34 33 37 36 36 37 38 38 37 37 40 46 46 43 47 47 41 36 37 38 39 41 39 31 26 25 26 27 27 26 23 23 25 28 32 34 36 36 36 36 35 34 34 33 35 38 39 41 46 47 40 36 38 40
9 9 9 9 17 43 70 84 95 103 102 98 99 101 100 100 101 101 101 90 81 92 103 101 102 102 100 102 90 68 64 66 64 69 74 69 63 54 49 50 44 42 47 43 35 36 39 37 37 38 39 40 40 42 49 53 52 51 50 46 39 36 38 40 42 44 40 34 28 25 24 25 26 27 27 26 25 28 31 34 36 37 38 37 37 37 35 34 35 36 39 45 43 32 31 42 57
8 10 10 9 15 25 44 79 104 102 100 102 99 101 101 101 102 100 102 100 84 82 98 102 101 104 101 101 101 88 75 67 62 68 75 73 70 63 53 52 52 46 46 48 41 36 39 40 37 37 37 38 39 40 47 60 66 59 50 49 43 36 36 39 41 44 47 46 41 32 26 24 26 29 29 26 24 25 27 27 30 35 36 36 36 36 36 35 34 35 37 39 39 38 45 62 80
8 10 9 10 20 20 27 69 104 103 100 101 100 101 100 101 102 99 101 99 77 66 85 99 98 99 98 97 101 99 87 71 63 66 72 73 72 69 62 54 54 53 48 51 51 40 37 40 39 37 35 36 38 39 43 55 66 61 53 55 53 43 37 38 40 44 49 51 50 45 37 30 29 31 30 26 24 24 26 27 27 29 31 32 32 33 34 36 36 36 35 35 38 51 70 85 95
7 10 9 10 20 21 31 66 92 102 104 100 100 102 98 100 101 99 101 101 82 63 73 95 98 94 97 99 100 102 93 73 67 67 64 68 73 71 67 58 54 56 52 52 56 50 43 40 41 39 36 35 36 37 38 44 54 55 50 54 58 48 40 39 39 43 50 54 54 52 49 44 38 36 34 31 29 26 26 30 30 29 28 28 29 31 32 33 35 36 36 36 37 46 65 87 100
7 9 9 10 15 16 42 80 88 93 105 101 98 101 99 100 100 99 101 100 88 71 75 96 103 100 101 101 99 102 98 76 68 71 64 66 76 75 71 66 58 55 53 52 54 54 51 48 46 43 39 37 36 37 35 37 44 48 44 46 49 45 41 41 40 40 45 52 55 54 53 55 51 46 43 40 39 34 29 28 31 34 35 32 29 29 30 31 32 34 35 36 36 37 46 66 78
7 10 10 11 15 18 51 97 96 86 100 102 98 101 100 100 101 99 100 101 93 83 85 93 97 100 103 102 100 102 101 84 70 73 69 67 79 84 77 72 67 59 53 51 52 53 52 51 50 47 43 40 38 39 37 35 37 40 40 40 41 42 41 41 41 41 42 44 50 52 52 55 57 56 53 51 50 46 39 33 29 32 37 38 34 30 29 30 30 31 32 35 37 35 35 43 51
7 10 10 10 17 29 61 100 98 87 99 102 98 101 100 100 102 100 99 101 99 95 92 83 75 87 100 102 100 101 102 94 79 75 72 67 78 91 86 77 74 68 58 50 51 55 53 48 48 48 47 44 41 42 42 40 38 37 38 39 38 39 43 44 43 43 43 42 44 47 48 49 52 56 57 57 57 57 54 48 39 33 32 33 32 31 30 29 29 29 29 32 36 37 35 35 46
8 10 12 10 15 30 62 99 104 94 100 102 99 101 101 100 100 100 100 100 100 100 93 78 65 74 94 103 101 100 101 101 94 86 79 69 70 87 95 87 77 73 67 56 50 53 56 52 48 48 48 46 42 43 45 45 43 40 41 42 41 42 42 42 45 45 44 43 43 44 43 42 44 49 54 57 58 58 59 60 56 48 40 34 30 28 27 28 29 29 29 30 33 36 37 36 41
10 10 11 11 13 20 42 82 105 102 99 100 100 100 100 101 100 99 101 99 100 102 96 88 79 72 81 96 102 101 100 102 102 99 92 81 68 75 93 97 86 77 73 64 54 51 55 57 52 47 47 46 43 43 46 49 49 48 47 44 54 69 61 45 43 47 46 44 44 44 40 38 39 42 47 52 56 57 56 57 60 62 59 51 40 31 27 26 27 27 28 30 31 33 36 36 37
10 11 11 10 13 13 20 53 89 102 102 99 99 101 100 101 101 99 100 100 101 102 100 98 96 83 72 77 90 100 102 101 102 102 99 93 77 67 80 97 95 84 79 75 66 55 53 59 59 51 45 42 42 42 43 49 53 57 58 55 71 94 89 68 52 47 51 51 47 46 43 40 39 39 42 46 49 53 54 52 51 58 68 69 59 45 34 28 25 26 26 27 29 31 33 35 36
10 11 10 11 11 10 19 43 68 86 101 104 100 101 101 100 102 98 97 101 102 102 100 97 99 98 87 80 80 86 91 97 100 97 94 100 95 78 76 92 100 95 86 82 77 67 58 58 62 60 50 41 39 39 38 42 46 52 56 60 80 101 103 95 76 57 60 66 58 51 50 48 42 38 41 44 46 47 48 49 45 45 57 70 72 61 48 37 29 25 25 25 27 29 31 33 34
11 12 10 13 11 9 21 44 58 68 90 108 107 102 101 101 101 96 92 96 100 101 98 94 96 100 100 97 86 70 63 74 94 99 94 99 102 92 86 93 102 102 92 84 82 77 66 60 60 64 60 48 39 36 35 36 37 40 42 45 67 91 96 99 97 86 84 87 77 61 56 57 51 42 40 41 44 47 45 43 42 39 42 56 69 71 62 51 40 30 25 24 24 26 28 30 31
11 13 11 12 12 11 15 33 57 68 79 100 107 102 101 101 101 98 91 86 88 95 98 96 99 100 100 102 96 79 62 62 85 104 98 90 90 93 97 97 95 92 87 83 78 70 63 57 50 53 59 55 46 40 36 35 34 37 39 37 46 62 69 79 93 99 98 99 93 75 61 62 59 51 48 43 39 44 44 41 40 38 36 39 52 66 69 64 55 43 31 24 23 24 25 26 28
Wind_Speed
2 4 6 11 12 10 10 12 12 13 15 16 20 24 25 28 30 32 35 39 42 43 44 44 43 39 34 30 27 26 24 23 21 20 17 14 11 10 9 8 8 7 6 5 4 3 2 3 3 5 8 12 16 20 25 28 29 29 27 26 26 26 25 20 13 9 9 11 13 14 15 16 13 9 8 8 9 10 10 11 13 15 15 15 15 10 5 10 14 14 16 19 18 17 19 17 15
1 2 4 10 11 10 11 12 11 13 13 13 19 24 25 28 30 32 35 38 41 42 43 43 42 39 35 31 27 25 24 22 20 18 17 15 13 11 9 9 9 8 8 8 8 7 7 8 9 9 6 3 2 8 13 18 21 24 25 26 26 24 18 12 7 6 6 7 9 9 9 9 7 7 7 7 8 11 14 14 15 17 15 14 14 12 9 11 16 17 18 18 16 17 19 16 14
3 1 3 8 11 10 11 10 9 12 13 11 16 23 25 26 28 32 35 38 40 41 42 42 41 40 35 31 27 25 24 22 20 18 16 15 14 12 9 9 9 9 9 10 11 11 11 12 14 15 16 15 14 10 6 2 4 8 11 15 16 15 10 5 2 2 3 4 4 4 5 6 7 9 10 9 9 12 15 15 16 16 15 13 13 12 12 13 15 16 16 15 16 18 18 15 14
6 2 1 5 9 9 10 7 7 10 13 12 13 21 24 24 26 31 35 37 39 40 42 42 41 40 35 31 27 24 23 22 21 18 16 14 13 12 10 9 9 8 9 11 13 13 12 13 14 16 17 18 18 18 16 14 12 9 7 4 3 2 2 3 4 4 3 1 1 3 5 8 10 11 12 11 11 13 15 15 15 15 16 15 14 13 14 15 15 15 15 15 18 18 16 16 14
7 3 1 3 7 7 8 5 5 7 10 11 10 17 23 23 25 28 33 36 38 40 41 41 40 39 35 31 27 24 23 22 21 20 17 15 14 12 11 10 9 9 10 12 13 13 12 13 14 15 15 16 16 16 16 15 14 13 12 10 9 7 6 6 6 4 2 1 3 7 8 8 10 13 14 13 12 12 12 13 13 13 14 14 15 15 16 15 16 16 16 16 17 17 15 16 14
7 4 2 2 6 7 8 6 6 7 9 10 7 14 21 22 24 26 30 35 36 38 40 40 39 38 35 31 27 25 23 22 22 21 19 17 15 13 11 10 9 9 11 13 13 13 13 14 15 15 14 14 15 15 15 14 13 12 11 10 8 7 5 5 5 3 1 3 4 7 8 8 8 10 12 10 9 10 11 11 9 10 11 12 14 15 15 14 14 15 17 17 16 16 14 15 16
6 5 2 2 4 5 6 6 6 6 8 8 4 11 18 21 23 24 27 33 35 37 38 38 38 37 35 31 27 25 23 23 22 22 21 18 16 14 12 11 10 10 12 14 13 12 12 14 15 15 15 14 15 15 15 14 13 12 11 9 8 7 5 2 2 1 1 5 5 6 7 8 8 7 8 7 6 9 11 10 7 7 8 10 10 10 12 11 12 13 16 17 15 15 12 13 15
6 6 3 1 3 4 4 5 6 6 7 6 3 9 16 20 22 23 25 31 34 35 37 37 37 37 34 31 28 25 24 24 23 22 21 19 17 15 14 12 11 11 12 14 13 11 12 13 13 13 14 13 13 13 13 12 12 11 10 8 6 4 4 4 4 2 3 5 6 5 6 8 7 6 8 8 7 9 12 11 10 10 10 10 10 12 13 13 14 17 18 18 17 15 11 10 12
7 6 4 2 1 4 4 5 6 6 6 4 4 9 14 19 21 22 24 28 32 33 35 36 36 36 34 31 28 26 25 24 23 22 21 19 17 16 15 15 14 13 13 13 13 11 11 11 11 11 10 9 9 8 9 9 10 9 8 7 6 5 5 5 6 4 4 6 7 7 8 8 6 7 10 12 12 12 13 13 12 13 13 14 15 17 17 16 17 18 19 18 17 13 11 11 10
9 6 4 2 1 3 2 3 4 4 6 3 4 10 13 17 20 21 23 26 30 32 33 34 35 35 34 32 28 26 25 24 23 22 20 18 18 17 17 16 16 15 14 13 13 11 10 9 9 8 8 8 8 7 6 7 8 8 9 9 6 6 6 5 5 5 5 6 6 6 7 6 6 10 12 14 14 13 12 12 13 14 15 16 17 18 18 18 18 19 18 18 15 12 11 11 11
11 6 5 4 2 2 1 3 3 3 6 4 2 9 12 15 19 21 23 25 28 30 33 33 34 35 34 32 29 26 25 24 23 22 20 18 18 18 18 17 17 15 14 14 13 12 10 9 8 7 7 8 8 7 7 7 7 8 10 9 6 5 5 5 5 5 5 6 7 3 4 7 10 12 14 14 13 12 11 11 12 13 15 16 17 18 19 19 19 18 17 15 13 11 11 13 13
13 7 6 5 2 2 1 2 3 3 4 5 2 7 11 13 17 20 22 25 26 29 31 33 33 34 35 33 30 27 25 24 22 21 20 17 17 18 19 18 17 16 14 13 13 11 10 8 7 6 7 7 7 6 5 5 5 7 8 8 6 6 5 5 5 5 6 7 7 5 7 11 13 14 15 14 13 12 12 12 12 14 15 16 17 18 19 18 17 16 15 13 11 11 12 14 15
14 9 6 5 4 5 1 0 1 2 2 4 2 6 9 11 15 18 21 23 25 28 30 32 32 33 34 33 31 28 25 24 22 22 20 18 17 18 19 18 17 16 14 13 11 10 8 6 6 6 6 5 4 4 3 4 5 7 7 7 7 8 8 6 6 6 7 8 8 10 12 13 14 15 14 13 12 12 12 13 13 15 16 16 17 17 17 15 15 15 14 13 11 11 11 12 12
14 10 8 6 6 6 2 0 1 1 2 4 2 6 7 10 13 16 19 22 23 26 28 30 31 32 34 33 32 28 25 23 23 22 20 18 17 18 19 18 17 16 15 13 11 10 8 7 7 6 5 4 3 3 3 4 5 7 8 9 9 10 10 8 5 5 7 9 10 13 14 14 13 13 12 10 10 11 12 13 14 14 15 15 16 16 15 15 16 15 14 13 12 11 11 9 7
14 12 10 8 8 5 3 3 2 2 3 4 1 4 6 9 12 14 17 20 21 25 27 30 31 32 33 33 32 29 26 23 23 22 20 19 19 18 18 17 15 15 15 14 13 13 12 11 9 7 5 4 4 3 3 4 6 7 9 10 9 10 11 10 7 6 6 7 10 12 13 12 10 10 11 10 11 12 13 14 14 14 14 15 16 16 17 16 16 14 12 10 8 8 7 4 0
16 14 10 8 10 7 5 3 2 3 3 3 2 3 6 8 10 12 15 18 20 23 26 29 30 31 32 33 32 30 27 24 22 22 21 20 20 19 17 16 14 13 14 14 14 14 12 10 9 7 6 5 5 5 5 6 7 7 8 8 9 10 10 10 9 8 7 6 7 9 9 10 10 11 12 13 13 13 14 14 14 14 15 15 17 17 17 16 13 8 5 2 2 2 3 5 7
17 16 12 10 12 10 7 4 3 4 2 4 5 2 4 5 8 10 13 16 18 21 26 29 30 30 31 32 32 31 28 25 22 21 21 20 21 20 17 16 14 12 12 12 12 12 10 8 9 9 9 8 7 8 8 9 9 8 8 9 10 10 10 9 9 9 7 6 5 5 6 8 9 10 11 12 12 12 12 13 13 14 15 16 16 15 13 10 5 3 4 6 7 8 10 9 7
19 18 15 13 13 11 8 5 5 6 4 6 6 4 2 4 7 8 11 14 16 20 25 28 29 30 30 32 32 31 29 26 22 20 20 20 21 20 18 15 13 12 11 10 9 8 9 9 11 12 12 10 10 10 11 11 11 10 10 11 11 10 9 9 9 9 8 7 6 5 5 7 7 8 8 9 9 10 11 11 12 13 13 12 11 10 7 5 6 8 9 11 12 11 11 10 9
21 20 18 15 16 13 11 8 7 9 7 6 6 4 1 3 5 6 8 12 14 18 23 26 28 29 30 31 31 31 29 27 23 20 20 20 21 20 18 15 14 13 11 10 9 8 10 11 13 14 13 13 13 13 13 13 12 12 13 12 12 11 11 11 11 10 10 9 9 8 8 8 8 8 8 9 9 10 10 11 11 11 10 8 7 7 8 9 11 12 12 13 13 13 12 12 12
22 21 18 14 16 15 14 12 11 12 9 7 6 4 2 1 3 4 7 11 12 15 22 25 26 28 29 29 31 31 29 28 24 21 19 20 21 21 18 15 14 14 12 11 10 11 11 12 14 14 15 16 16 16 15 15 14 14 15 15 14 13 13 13 12 12 12 12 12 11 11 10 10 10 10 10 10 10 11 11 11 10 9 9 11 12 13 14 15 15 15 14 14 15 15 15 14
26 22 19 13 12 15 15 13 13 13 11 9 7 6 4 1 1 3 6 9 11 13 20 23 23 25 27 28 29 30 29 28 25 22 19 20 20 20 19 16 15 14 13 13 12 13 13 14 14 14 16 17 17 17 16 16 16 16 16 16 15 15 14 14 14 13 13 14 14 13 13 13 13 13 12 12 11 11 12 12 12 13 14 15 16 17 16 17 17 17 17 16 17 18 18 17 17
30 25 22 17 12 14 17 15 13 12 11 9 7 6 5 3 2 3 6 8 9 11 16 20 21 23 26 27 28 29 28 27 26 22 20 19 20 20 19 18 17 15 13 13 13 14 15 16 15 15 16 17 16 16 17 16 17 17 16 16 16 16 15 15 15 15 14 14 14 14 14 14 15 15 15 14 14 13 13 13 13 16 18 19 20 19 18 18 19 20 19 19 20 20 21 21 21
33 28 24 22 17 14 16 16 13 10 8 7 8 8 6 3 3 4 5 6 7 9 12 16 19 21 24 26 26 27 28 26 25 23 20 19 19 19 19 19 18 16 14 14 15 15 16 16 16 16 17 17 16 16 17 17 17 17 16 16 16 16 16 16 16 15 16 15 15 15 15 15 17 17 16 15 16 16 15 15 16 17 20 21 21 21 21 21 22 23 23 22 23 23 23 23 23
38 33 27 24 21 17 16 16 15 11 6 6 8 9 7 5 3 3 3 4 6 7 10 13 17 20 21 24 25 25 26 26 25 23 20 18 18 18 18 19 18 17 16 16 16 16 17 17 17 17 17 17 17 17 18 18 18 17 17 17 16 16 16 16 16 16 16 16 16 16 15 16 17 18 18 16 16 16 15 14 16 18 19 20 21 22 23 23 23 24 24 24 24 24 24 24 23
40 35 29 25 23 21 18 14 13 13 10 10 9 9 10 7 3 0 2 3 4 5 8 11 15 18 19 22 23 24 25 25 24 23 21 18 17 17 17 18 18 17 17 17 17 17 18 18 18 18 19 19 18 19 19 19 18 18 18 17 17 17 17 16 17 17 17 17 17 17 16 16 17 19 19 17 16 17 15 13 15 17 19 19 21 23 23 23 24 25 25 24 24 23 24 24 23
42 37 32 26 23 21 17 14 15 15 14 14 12 12 12 9 5 3 1 1 2 3 5 9 13 16 18 20 22 22 23 24 23 23 21 19 17 17 17 17 17 16 16 17 17 17 18 19 19 20 20 20 20 21 21 20 20 20 19 19 18 18 17 17 17 17 17 17 17 18 18 17 18 20 19 18 17 17 16 16 16 18 19 19 20 22 23 24 24 24 24 23 22 22 23 23 22
44 40 35 30 26 22 17 18 21 20 17 14 14 16 15 10 8 6 3 2 1 2 4 6 10 14 16 18 20 21 22 22 22 22 22 20 18 17 17 16 16 16 16 16 16 17 18 19 20 20 21 21 22 23 23 23 23 22 21 20 20 19 19 18 17 17 18 18 18 18 18 19 19 19 19 19 18 17 17 18 17 18 19 20 21 22 24 24 24 23 23 22 21 21 22 22 21
46 43 38 33 29 24 21 21 21 20 18 17 17 18 15 10 10 9 5 3 3 2 3 4 8 12 14 16 18 19 20 21 21 22 21 20 19 18 17 17 16 15 15 15 16 17 18 19 19 20 21 21 23 24 24 25 25 25 24 23 22 21 20 19 18 18 18 18 18 18 19 19 18 18 19 19 19 19 17 18 18 18 19 20 21 22 23 22 22 22 21 21 21 20 21 22 21
47 45 41 37 32 27 25 23 20 19 21 21 20 17 14 11 10 10 6 4 4 3 2 3 6 10 12 14 16 18 19 19 19 21 21 20 19 18 18 17 16 15 14 14 14 15 16 17 18 19 20 21 22 22 24 24 25 26 26 25 24 23 22 21 20 19 18 18 18 18 18 18 18 18 18 19 19 20 18 18 19 19 20 20 21 21 21 21 20 21 21 21 21 20 20 21 21
49 48 45 40 36 31 27 24 23 23 23 23 22 19 16 12 12 11 8 6 6 4 3 3 4 7 10 12 14 16 17 18 18 19 20 20 19 18 18 18 17 15 14 14 14 14 14 15 16 17 18 19 20 21 23 24 24 24 26 26 25 24 23 22 21 21 19 18 18 18 18 18 18 18 18 19 19 19 19 19 20 21 21 21 21 21 22 21 20 20 20 20 20 19 19 20 21
51 50 47 44 39 35 31 27 25 25 24 23 23 21 18 15 16 14 9 8 8 6 4 4 3 5 8 9 11 14 15 16 17 18 19 19 19 18 18 18 17 16 15 14 14 14 14 14 15 16 18 19 20 20 21 23 23 23 25 26 26 25 24 23 23 22 21 20 18 18 18 18 18 18 18 18 19 19 20 21 21 21 21 20 21 22 23 23 21 20 20 20 20 20 19 19 19
52 51 50 47 43 39 33 28 27 25 23 25 25 22 19 19 20 17 12 11 10 8 6 5 4 3 5 7 8 11 13 14 16 16 18 18 18 18 18 18 18 17 16 15 14 14 14 14 15 16 17 18 19 20 20 21 22 23 24 26 26 25 24 24 24 23 22 22 20 19 19 18 18 18 18 18 19 19 20 20 21 21 20 20 21 22 23 24 23 21 21 21 20 20 19 18 18
51 52 52 49 45 42 35 27 25 25 25 26 24 22 23 24 23 19 15 14 13 10 8 8 7 4 3 5 6 9 11 12 14 15 16 17 17 17 17 18 19 18 18 17 16 15 15 15 15 15 16 18 19 19 20 21 21 22 24 26 26 26 25 25 25 25 24 23 22 21 20 19 18 19 19 19 19 19 20 20 21 21 21 20 21 21 22 24 24 22 21 20 19 19 18 18 18
55 54 54 51 47 45 41 31 24 24 26 26 23 23 26 25 22 20 19 17 15 13 11 10 9 7 3 2 3 6 9 10 13 14 15 16 16 16 17 18 19 19 19 19 18 16 16 16 16 16 16 17 18 19 21 21 21 22 23 25 26 26 26 26 26 26 25 23 23 22 21 20 19 19 19 19 19 19 20 20 20 21 22 22 21 21 21 22 23 23 20 19 18 17 16 17 17
58 55 54 53 50 47 45 38 32 27 24 25 24 24 26 26 22 20 20 19 17 15 13 11 11 10 6 1 0 4 7 8 10 12 13 14 15 15 16 17 18 19 20 20 19 18 17 17 16 16 17 17 17 18 20 22 22 22 23 25 26 27 27 27 27 27 26 25 24 23 22 21 19 19 18 18 18 18 19 19 19 19 21 23 22 21 20 20 21 21 20 19 17 16 16 16 16
61 58 56 54 52 50 46 41 38 34 28 25 25 24 24 26 25 22 21 21 18 16 15 13 12 11 8 4 3 2 4 6 8 10 12 13 14 14 15 17 18 19 20 20 20 19 18 18 17 17 17 17 17 17 19 21 22 22 23 24 25 27 27 28 28 27 27 27 26 25 23 22 21 20 19 18 18 18 18 18 18 18 20 21 21 20 19 19 18 18 19 19 18 17 16 17 18
62 60 59 55 52 52 49 44 40 37 33 30 28 25 22 25 28 24 22 22 19 18 17 15 13 12 10 7 5 3 3 4 7 8 10 12 12 13 14 16 17 18 19 19 20 20 19 18 18 17 17 17 17 17 18 20 22 22 23 24 25 27 27 28 29 28 28 28 27 26 25 24 22 21 20 19 18 18 18 19 18 18 18 19 19 18 18 18 17 16 16 17 17 17 17 19 21
63 62 61 58 54 52 50 46 43 39 36 34 30 28 25 26 29 27 24 24 20 18 18 15 13 12 11 10 8 5 2 2 5 7 8 10 11 12 13 15 16 17 18 19 19 20 19 19 18 18 17 16 16 17 18 21 22 23 23 24 25 26 27 28 29 29 29 28 28 27 27 26 24 23 22 20 19 18 18 18 18 17 17 17 16 16 17 17 16 16 15 15 16 16 16 17 18
65 64 62 59 56 55 51 46 43 39 37 35 31 30 28 28 31 28 27 26 21 20 22 19 15 14 13 12 10 6 3 2 3 5 6 8 9 10 12 14 15 16 17 18 18 19 19 19 19 18 18 17 17 18 19 21 21 22 23 24 25 26 26 27 28 29 29 28 28 28 27 27 26 24 23 22 21 19 18 17 17 16 17 16 15 15 15 15 15 15 14 14 14 14 13 12 13
66 64 63 60 58 57 53 46 40 36 36 35 33 33 30 28 30 29 28 28 24 24 27 23 19 16 15 14 12 8 6 4 2 3 4 6 7 9 10 11 14 15 16 17 18 18 18 18 18 19 18 18 18 19 20 21 21 22 23 24 24 25 26 27 27 28 28 28 28 28 28 27 26 25 24 24 23 21 20 19 17 16 16 16 15 14 14 14 14 14 13 13 13 14 13 13 13
67 65 63 62 60 57 51 45 39 35 34 33 33 35 32 28 29 30 30 30 27 27 29 26 23 20 17 17 16 12 8 6 4 3 3 4 5 7 8 9 11 14 15 16 16 17 17 17 17 18 18 18 18 19 19 21 21 21 22 23 24 25 26 27 27 27 27 27 27 28 28 27 27 26 25 24 24 22 21 19 18 17 17 16 15 15 14 14 14 15 15 14 13 12 13 14 14
68 67 65 64 62 58 52 46 41 37 35 33 32 34 33 30 30 32 33 33 30 30 30 28 26 23 20 19 19 16 11 8 6 4 2 2 3 5 7 8 9 11 13 15 15 16 15 16 16 16 17 17 17 18 19 20 21 21 21 22 23 24 24 26 27 26 26 26 25 26 27 27 26 26 25 25 25 24 22 20 20 19 18 17 17 16 15 14 15 15 16 16 14 13 12 12 14
70 69 68 66 63 60 56 51 46 39 35 35 34 35 35 33 32 34 36 34 31 30 30 28 26 25 23 21 21 19 13 9 7 5 3 1 1 3 5 6 7 8 10 13 14 15 14 14 14 15 15 15 16 17 18 18 19 20 20 21 22 23 24 25 26 26 26 26 25 26 27 26 26 26 25 25 25 24 24 23 22 21 20 19 18 18 17 16 15 15 15 16 16 16 15 14 15
72 71 70 67 65 63 59 57 52 43 38 37 37 37 38 37 35 35 37 36 32 31 30 29 27 26 26 24 22 21 17 12 10 7 6 4 2 0 3 5 6 6 7 10 12 13 14 13 13 13 13 13 14 15 15 16 17 18 20 20 21 21 23 24 25 26 26 26 26 26 26 26 26 26 25 25 24 24 24 23 23 22 22 21 20 19 18 17 16 16 16 16 17 18 18 17 16
74 73 71 68 67 63 58 58 55 47 42 40 38 38 40 40 37 36 38 37 35 33 30 30 29 28 28 26 24 23 20 16 13 10 9 7 5 2 1 3 5 6 6 7 10 11 13 13 12 12 11 11 12 12 12 13 14 16 18 19 19 20 21 22 23 25 26 27 26 26 25 25 25 25 25 25 24 23 23 23 22 22 22 21 21 20 20 18 17 17 17 17 18 19 20 19 18
76 74 72 71 69 66 60 57 55 50 47 45 41 40 41 41 39 38 38 38 38 35 31 30 31 30 29 27 26 25 23 19 17 14 12 10 7 5 2 0 3 5 5 5 7 9 11 12 12 11 10 10 10 11 10 10 12 13 15 16 17 18 19 20 20 22 25 27 26 26 25 25 24 24 24 24 24 24 23 23 22 22 22 22 21 21 20 19 18 17 16 16 17 19 21 20 20
76 75 74 72 70 68 64 59 57 54 51 48 45 43 41 41 41 40 40 41 40 38 32 31 32 30 28 27 27 27 24 21 19 16 14 12 10 7 5 2 0 3 4 3 6 8 9 10 10 10 9 8 9 9 9 8 9 11 13 14 15 16 17 18 19 20 22 24 25 26 25 25 24 24 24 24 24 24 24 24 23 23 22 21 21 21 20 20 19 18 17 16 16 18 19 19 18
78 77 76 73 70 69 67 63 61 58 52 48 47 45 42 43 43 42 42 42 41 40 37 33 33 31 29 28 28 28 26 22 20 19 17 15 13 10 8 6 3 1 2 3 4 7 8 8 8 8 7 7 7 8 8 8 8 9 10 11 12 14 15 16 18 18 19 21 23 24 25 25 24 24 24 24 24 25 24 25 25 24 23 22 22 22 21 21 21 20 19 17 16 15 15 16 16
79 78 77 75 73 72 70 66 66 62 54 50 50 47 44 44 45 43 43 42 42 43 41 36 33 31 30 28 28 27 26 24 23 21 19 17 15 12 11 9 6 5 2 1 3 5 6 5 5 5 5 5 5 6 7 7 8 8 9 9 10 12 13 15 16 17 17 19 20 22 23 23 24 24 24 24 25 25 25 24 25 25 24 24 23 23 22 22 22 22 21 19 18 16 14 14 14
79 77 76 76 76 74 72 68 68 66 57 51 51 49 47 45 45 44 43 42 43 44 42 38 34 31 31 30 28 28 27 26 24 23 21 18 17 15 13 11 10 8 6 4 3 4 4 3 2 1 2 3 3 4 5 6 7 8 8 8 9 10 12 14 15 16 16 17 19 20 21 22 22 23 23 24 24 25 25 25 24 24 24 25 25 24 23 23 23 22 22 21 20 19 17 14 13
80 78 77 77 77 77 74 70 69 68 59 52 50 49 50 48 45 45 43 42 44 44 42 40 36 33 32 32 30 30 29 27 26 25 23 20 18 17 16 14 12 11 10 8 5 4 4 3 2 2 3 2 1 2 3 4 5 6 6 6 7 9 11 12 13 14 14 15 18 20 21 21 21 22 22 22 23 24 24 24 24 24 24 24 24 25 24 23 23 23 23 23 21 20 18 16 15
82 81 80 79 79 79 77 72 71 70 62 54 52 50 50 50 48 48 46 45 45 44 42 41 39 35 34 35 34 32 30 27 26 26 25 23 21 20 19 17 16 14 13 11 9 7 6 4 3 3 4 4 3 2 1 1 2 3 4 5 6 8 9 11 12 12 13 13 15 18 20 21 21 21 21 21 21 22 23 23 24 24 24 24 24 24 24 24 24 24 23 23 22 20 18 17 16
83 82 81 82 82 82 79 74 73 73 66 59 57 55 53 52 51 51 51 48 47 45 43 42 40 36 34 36 37 36 33 29 26 26 27 25 24 23 22 20 19 17 16 14 12 11 9 7 5 3 4 5 5 4 3 2 1 1 2 3 4 6 7 8 9 10 11 12 13 16 19 21 21 21 21 20 20 21 22 22 22 22 23 23 23 23 23 23 24 24 24 23 22 20 19 17 16
84 83 83 84 85 84 82 78 76 76 70 63 60 59 58 57 55 54 53 51 48 46 44 42 39 37 36 37 37 38 37 33 29 28 28 28 27 26 25 24 22 21 19 17 16 14 12 11 9 7 5 5 5 6 5 4 3 3 2 1 2 4 4 4 6 8 9 10 11 14 17 20 21 21 21 20 20 21 22 22 22 21 21 21 21 22 22 22 22 22 23 23 22 20 19 18 17
85 87 87 86 87 86 84 81 79 79 74 68 63 60 60 62 61 58 56 53 49 48 47 44 39 38 38 38 37 38 39 36 32 29 29 30 29 28 27 27 26 24 22 20 18 18 16 14 13 12 11 9 7 6 6 5 4 3 2 2 3 3 2 0 3 6 7 8 8 11 15 18 19 19 19 19 19 19 20 21 21 21 21 20 20 19 20 20 20 20 21 21 21 20 19 18 17
87 87 87 86 87 87 85 82 81 81 78 72 68 63 61 64 64 63 61 56 51 50 50 47 42 39 38 39 39 39 40 38 33 31 30 30 30 30 29 30 29 28 25 23 21 20 20 18 17 17 16 15 12 10 8 7 5 4 1 2 2 1 1 1 0 3 5 5 5 8 12 15 16 17 17 18 18 18 19 19 20 20 20 20 19 19 18 18 19 18 18 18 18 18 17 17 16
89 88 87 86 86 86 86 83 81 82 79 74 71 67 64 65 65 64 63 58 53 51 50 48 44 40 38 38 41 42 42 39 36 34 34 32 32 32 32 32 32 31 28 26 25 24 23 22 21 21 21 20 18 15 13 12 10 8 5 4 4 0 1 1 1 2 3 3 3 4 8 11 13 14 15 16 16 17 17 17 17 18 19 19 19 18 18 18 17 17 16 16 16 16 16 15 15
90 89 88 88 87 88 88 87 84 82 80 74 70 69 67 67 66 64 63 60 55 52 51 47 44 41 37 36 38 41 42 42 40 38 37 35 33 32 33 34 33 34 32 29 28 28 27 26 25 25 25 24 22 19 18 16 14 13 11 10 8 5 2 2 2 1 1 3 3 3 4 6 9 11 12 13 15 15 15 15 15 15 16 17 17 17 17 16 16 16 15 15 14 14 14 14 14
Wind_Direction
36 36 37 57 53 38 34 32 19 1 1 2 7 17 23 23 21 22 25 25 23 20 19 18 17 17 17 18 23 26 30 36 42 44 43 47 51 56 57 56 52 49 51 54 60 55 37 358 335 298 270 257 249 245 245 248 252 256 258 260 261 264 272 280 289 296 299 290 275 274 282 289 286 275 260 261 292 311 313 307 306 302 298 300 296 294 286 278 280 278 294 310 316 322 326 330 333
232 33 37 57 55 41 36 35 22 7 3 354 359 13 22 24 21 21 24 25 23 19 19 19 18 17 17 18 22 26 30 34 41 45 45 47 52 57 53 51 50 47 46 50 59 68 71 65 62 62 59 57 237 239 242 245 249 252 253 255 258 262 270 280 288 297 296 279 270 271 273 277 284 297 295 282 295 310 307 297 298 301 297 295 292 291 278 262 266 277 299 311 318 327 327 325 325
219 345 26 61 61 47 35 31 14 6 5 353 355 8 20 24 21 21 24 24 23 20 19 19 18 17 17 18 21 26 28 32 37 43 46 47 55 60 51 49 48 45 47 55 67 75 77 70 69 69 68 68 69 74 82 127 217 235 243 249 254 258 265 276 267 243 245 248 256 250 256 278 299 311 310 297 296 302 299 293 295 298 294 293 294 292 287 278 276 285 303 310 317 326 328 324 318
213 257 344 67 63 47 40 34 4 360 1 356 354 4 17 22 19 21 24 24 23 20 19 19 18 17 18 18 20 25 27 29 34 38 42 45 52 58 53 52 56 57 61 68 75 79 78 73 72 70 68 66 67 68 70 75 81 91 102 124 165 192 186 168 154 153 160 129 342 301 288 296 304 306 301 296 295 295 294 292 289 287 289 295 296 292 292 293 288 289 299 305 310 320 328 326 313
209 240 276 72 64 47 39 44 9 356 357 358 349 358 14 19 17 21 24 23 22 21 19 18 18 18 18 18 19 23 26 27 30 34 37 41 47 54 54 53 63 73 79 82 83 83 81 76 74 71 69 68 69 69 70 73 77 82 86 90 95 103 120 136 136 130 120 64 335 311 308 302 303 299 289 290 294 288 280 283 282 288 296 299 299 297 297 296 294 295 298 298 302 312 322 324 310
208 233 230 80 65 53 46 57 28 1 353 1 350 352 9 17 16 19 22 23 22 21 20 18 18 18 19 17 18 22 25 26 28 31 33 39 45 53 57 56 65 79 90 93 90 87 83 78 75 73 73 73 72 71 71 72 74 75 77 77 77 80 99 131 139 127 31 341 313 296 299 294 295 293 281 276 273 261 260 276 294 308 305 295 297 301 299 296 299 299 295 291 295 310 317 318 306
205 229 225 81 60 61 55 57 36 11 2 20 14 343 4 16 16 17 21 23 22 22 20 18 18 18 19 18 19 22 24 26 27 30 33 39 46 53 60 63 68 78 94 100 97 92 87 80 76 73 73 73 71 70 69 68 67 66 62 57 59 63 69 104 170 220 331 341 317 282 287 293 291 288 281 271 250 252 265 277 286 291 291 292 297 294 287 280 281 284 288 292 298 309 312 312 303
201 223 234 122 82 61 45 46 40 19 9 34 42 343 3 17 16 15 19 23 22 21 21 19 18 19 20 19 19 22 24 27 28 31 34 40 46 53 59 65 71 79 93 104 105 99 91 82 77 75 71 70 67 64 65 64 59 54 47 41 35 34 32 22 6 326 316 328 315 287 293 303 298 293 303 304 287 278 279 278 270 263 265 276 280 277 280 274 272 279 289 296 299 302 298 299 299
206 216 237 218 89 47 35 34 31 14 0 1 359 348 6 17 15 14 16 22 23 21 22 20 18 19 21 21 20 23 26 27 30 31 34 40 45 51 56 61 69 79 91 107 114 108 95 85 78 73 66 62 58 55 57 56 48 40 32 17 5 6 8 14 15 354 322 314 305 291 289 299 311 322 324 319 304 291 286 286 281 273 270 271 274 280 286 287 285 289 292 292 291 292 291 293 297
209 217 239 225 89 55 49 1 355 1 5 9 343 344 5 15 12 12 15 20 24 22 22 22 19 20 22 21 21 24 28 29 31 31 33 39 44 49 52 59 67 78 91 104 115 113 104 92 82 71 58 53 50 49 46 39 31 23 11 5 14 27 16 0 351 329 321 330 325 295 278 300 322 330 331 327 315 300 293 292 287 282 283 286 287 288 290 294 296 296 294 291 285 283 288 292 294
210 223 247 225 160 129 121 339 317 347 10 61 10 337 0 12 7 8 16 21 25 24 23 24 20 20 23 22 22 25 29 32 33 33 34 39 44 48 51 58 66 78 92 102 111 113 109 100 90 77 67 64 59 55 47 34 31 26 16 14 26 27 2 348 335 312 315 343 356 322 285 318 322 324 328 327 322 309 300 296 291 289 291 293 292 293 294 296 298 298 297 294 287 279 282 284 283
213 223 248 244 206 200 172 339 328 356 18 80 46 345 360 2 3 6 17 22 25 26 24 26 22 20 24 22 22 25 30 33 34 34 35 38 42 47 51 59 65 75 88 98 104 107 104 97 87 73 65 67 61 53 38 26 25 19 15 18 15 5 350 331 326 315 320 340 347 321 304 312 316 321 322 320 318 309 302 299 296 293 292 293 293 296 298 299 301 300 298 297 292 282 281 278 273
215 226 252 261 237 242 232 58 309 336 43 104 28 355 359 350 360 7 17 22 25 27 26 27 24 21 24 23 23 25 30 33 34 35 36 38 41 46 52 59 65 74 83 88 92 93 90 80 70 64 58 58 55 44 12 351 353 357 1 0 347 347 351 340 330 332 332 330 323 312 309 312 314 317 314 312 311 303 300 301 300 297 298 299 300 303 303 303 305 304 298 295 289 283 285 277 269
216 228 246 244 230 242 247 174 271 294 97 108 337 344 352 345 3 10 17 23 24 27 27 29 26 23 23 23 23 24 29 33 35 36 37 38 41 48 53 59 66 76 82 84 85 82 73 61 56 58 59 51 47 38 7 349 350 354 351 344 332 333 348 352 345 339 328 324 321 312 310 313 312 311 312 313 308 304 305 306 305 305 306 307 310 312 310 308 309 307 298 292 286 278 280 277 274
213 225 240 248 239 234 228 223 231 196 118 100 324 327 350 352 6 13 16 21 25 27 28 30 28 24 24 23 23 24 27 32 36 37 37 38 42 49 55 60 68 80 85 86 84 76 65 58 53 48 49 45 37 30 10 354 347 344 338 339 337 338 351 2 3 359 346 339 329 317 315 318 315 311 318 321 316 314 314 312 313 313 312 315 318 316 313 310 309 306 296 287 277 265 263 265 58
211 219 232 254 245 228 223 216 192 190 142 123 171 307 343 357 5 13 16 20 26 28 30 32 29 26 24 23 23 23 26 31 36 38 38 40 44 51 57 60 67 80 87 88 83 74 63 53 46 39 36 39 34 31 26 13 359 350 347 353 359 359 2 6 9 7 7 3 338 327 324 321 318 317 320 324 323 322 321 322 323 324 323 322 319 315 312 310 310 311 306 286 216 182 131 113 113
209 215 225 246 244 229 227 230 205 197 182 179 173 222 306 354 7 9 13 18 26 30 32 32 30 27 24 23 22 22 24 29 35 39 39 42 47 53 57 60 65 76 83 84 81 72 64 53 45 42 37 31 31 33 31 26 21 20 18 17 14 9 8 7 7 7 11 13 352 339 328 320 320 322 326 330 330 329 332 334 334 333 329 324 320 318 317 319 339 41 76 92 101 100 98 101 111
209 216 226 238 242 231 227 235 218 203 194 211 207 202 237 5 9 2 8 16 24 30 33 32 29 27 24 23 22 21 22 26 34 39 40 43 49 56 59 61 66 74 79 80 76 61 58 58 48 42 36 30 33 34 32 30 31 30 28 26 20 14 16 15 12 13 18 20 12 358 345 339 340 342 346 348 348 347 347 346 343 338 333 330 329 334 348 29 70 84 90 92 91 90 92 94 97
212 217 226 238 245 239 231 232 219 207 197 218 240 229 199 12 2 354 9 17 19 28 34 32 28 26 24 23 22 20 20 24 31 38 40 42 50 58 60 63 70 71 72 72 66 52 54 57 47 38 34 34 36 36 36 35 34 34 35 35 30 27 31 31 29 29 30 31 30 25 19 15 14 15 16 11 7 5 3 2 357 352 351 356 11 32 56 75 84 87 86 85 87 88 88 89 91
215 218 222 239 251 243 231 226 227 224 209 205 229 226 203 351 352 354 14 19 14 26 35 31 25 25 25 24 23 20 19 23 28 35 39 42 50 58 60 64 72 69 64 59 57 54 52 50 42 36 36 38 39 40 41 41 41 41 41 41 38 38 40 41 41 40 39 37 35 34 32 30 29 29 26 23 20 21 22 18 17 25 39 52 61 67 75 82 86 87 86 84 85 86 86 87 87
216 217 217 226 239 237 233 229 234 237 221 208 219 212 190 195 9 12 23 24 15 25 34 30 23 22 25 24 23 20 18 21 26 32 37 42 49 57 61 63 68 67 63 59 56 52 46 44 42 40 40 40 41 43 45 45 45 43 42 42 41 41 41 42 43 41 40 37 37 36 36 35 36 35 34 32 30 32 31 31 42 56 64 70 73 76 80 83 85 86 86 85 81 81 82 84 86
216 217 216 218 223 232 236 232 236 245 235 224 227 209 181 168 121 48 30 27 16 20 28 27 22 21 23 24 24 21 18 19 24 30 35 40 47 56 61 64 68 67 67 65 58 51 47 46 46 44 44 43 43 44 46 46 46 45 43 42 41 41 39 39 40 39 39 38 38 38 37 40 40 41 42 42 43 41 39 46 62 70 74 76 77 80 82 84 86 85 84 81 79 80 83 86 88
216 218 217 220 224 229 231 229 236 253 255 244 238 219 191 166 127 72 40 28 17 13 20 23 22 20 21 23 24 22 19 18 22 29 34 38 45 53 60 65 68 67 69 69 61 55 55 54 52 50 48 47 46 46 47 47 46 46 45 42 41 42 40 39 39 39 40 39 39 40 40 42 44 46 47 49 50 47 51 62 68 74 79 79 80 83 84 84 85 83 81 81 81 84 87 88 89
215 218 218 221 227 231 233 232 238 251 251 236 236 227 203 182 151 82 41 19 12 10 15 21 22 20 21 22 23 23 20 18 21 28 34 38 42 48 57 64 69 69 68 68 64 62 62 61 59 57 55 52 49 49 49 47 46 46 45 42 41 42 42 41 42 42 43 43 43 44 43 44 48 51 50 51 52 49 57 65 66 76 83 80 79 82 84 86 85 81 79 81 84 87 89 89 89
213 215 214 217 225 231 236 238 248 256 248 235 230 225 213 199 197 105 27 5 359 5 12 19 21 20 21 20 22 24 21 19 20 26 33 37 41 45 53 62 68 70 70 71 69 68 67 65 63 62 60 57 54 53 51 49 48 47 46 44 41 42 43 43 44 45 46 47 48 48 48 50 54 55 53 54 55 53 57 62 67 79 85 82 79 79 82 85 85 81 80 81 85 88 89 90 91
212 212 209 211 219 223 226 230 235 236 233 234 225 218 216 214 228 242 243 347 339 348 2 10 18 21 21 20 20 23 23 20 19 25 31 36 39 42 48 58 65 69 71 72 72 71 70 68 65 63 61 59 57 55 53 51 50 49 48 46 44 44 44 45 46 47 49 50 52 52 54 58 60 58 56 59 60 57 59 64 70 79 85 86 83 82 83 83 83 81 80 83 85 88 89 90 92
212 211 209 211 216 214 212 221 228 225 221 218 216 220 223 224 234 232 218 215 232 306 345 359 16 22 22 19 18 21 24 22 20 23 29 35 38 39 43 52 59 63 67 70 70 70 70 68 66 64 62 60 58 56 54 52 51 50 49 48 47 47 46 47 47 48 51 52 54 55 58 62 62 59 59 62 63 63 65 67 71 80 87 90 86 84 85 83 82 81 82 85 87 89 91 91 92
211 211 210 212 216 213 209 216 226 232 225 206 206 221 222 217 222 220 214 213 212 247 325 349 13 22 22 18 17 19 24 25 21 22 28 34 36 39 41 46 52 57 61 64 66 67 68 67 65 64 62 60 58 57 55 53 53 52 50 50 50 49 49 48 48 49 50 54 57 58 60 64 63 62 62 64 64 65 68 70 72 79 85 88 85 83 84 83 83 82 84 88 88 88 89 91 92
210 210 210 213 216 214 213 214 216 226 226 215 214 218 214 210 213 212 209 210 216 234 296 339 9 21 21 17 15 18 23 26 23 22 27 33 36 38 41 44 48 51 55 59 61 64 65 65 64 63 61 60 59 58 56 55 56 54 51 50 51 51 50 50 49 49 50 55 58 59 62 65 66 66 67 68 67 67 69 73 75 79 83 85 84 82 82 85 85 84 85 87 88 87 87 90 92
209 210 210 212 215 213 213 212 209 216 222 223 221 211 206 211 208 207 206 210 221 227 254 306 2 19 21 17 14 18 23 26 26 24 26 32 36 38 41 44 46 47 49 53 55 59 61 62 62 61 60 59 58 57 56 56 58 55 51 50 52 52 52 52 51 50 51 54 59 60 62 66 68 69 70 72 72 70 72 76 79 81 83 84 84 81 81 84 88 88 88 88 89 88 87 88 90
207 208 209 210 212 211 210 213 211 212 216 220 221 212 206 211 208 209 213 216 224 227 238 270 323 11 19 16 14 19 23 26 28 26 27 32 35 38 41 44 47 47 47 49 51 53 55 57 58 59 58 57 56 55 55 55 57 55 51 51 54 55 55 54 53 51 52 55 59 61 61 66 68 70 73 75 74 73 74 79 82 82 83 85 85 83 81 83 86 87 86 86 87 87 86 85 87
205 206 207 208 210 208 208 217 219 213 211 214 220 216 206 204 207 214 221 221 223 228 234 251 272 340 19 17 13 20 24 27 31 29 29 31 35 39 41 44 47 48 48 48 49 50 52 55 57 57 57 57 55 54 53 53 55 53 51 51 53 56 56 56 55 53 52 54 58 60 60 64 67 70 75 75 74 74 74 78 81 80 82 84 83 82 80 79 79 82 83 83 82 82 82 80 81
205 206 206 206 209 206 203 208 215 215 215 216 217 211 200 199 208 219 229 227 222 225 233 240 251 276 9 20 12 24 28 27 31 31 31 32 35 39 41 43 46 47 49 49 48 50 50 53 55 56 57 57 57 55 53 52 54 53 50 50 53 55 56 56 56 54 53 53 55 58 59 61 65 70 73 74 74 74 75 77 80 79 80 82 81 78 78 75 74 77 80 80 78 77 77 75 76
206 206 205 206 207 207 203 200 203 212 219 221 217 210 204 204 213 220 226 227 221 223 233 236 243 255 300 20 17 29 33 28 31 33 32 34 36 39 41 43 45 46 48 49 49 49 49 52 54 55 56 58 59 57 53 52 52 51 49 49 51 54 55 55 55 55 54 54 54 56 58 59 63 68 71 72 75 76 77 79 82 81 80 81 81 78 77 75 73 74 77 77 76 74 74 73 72
205 204 204 206 207 206 205 203 205 207 214 219 212 211 214 213 212 212 216 221 217 219 229 233 239 246 258 276 88 43 40 29 31 33 32 34 37 40 41 42 44 46 48 49 50 50 50 52 53 54 56 57 58 56 51 50 50 50 49 49 50 52 54 55 55 55 55 54 53 55 58 59 60 64 68 69 73 76 77 78 80 81 81 80 80 79 77 77 75 74 74 74 75 74 73 71 72
205 204 203 204 205 205 205 204 205 201 200 207 204 206 216 212 206 205 209 216 212 215 226 230 236 241 246 239 193 93 58 36 29 33 34 34 38 42 43 43 44 46 48 49 50 51 51 52 53 54 54 54 55 54 49 47 49 50 49 49 50 52 54 55 55 55 55 55 54 54 56 58 59 61 65 67 69 72 74 76 77 78 78 76 75 75 77 80 80 77 72 70 72 72 72 73 77
205 204 203 201 203 204 206 206 204 202 205 212 209 209 215 211 207 204 205 211 209 213 223 227 234 237 239 231 196 152 90 54 35 30 32 34 36 43 45 44 46 46 49 51 51 52 51 52 53 53 54 53 54 52 48 48 50 50 49 50 52 53 55 56 56 56 57 57 55 55 55 57 58 59 61 65 67 69 71 74 76 77 77 75 74 74 77 80 82 81 76 71 70 72 76 79 80
205 205 203 202 201 203 206 207 207 210 214 217 215 217 222 218 212 205 203 210 209 216 227 230 238 238 234 227 204 175 148 97 52 32 26 32 35 42 49 47 48 49 51 53 53 54 54 53 52 52 54 55 54 52 50 50 51 52 51 52 53 54 56 58 59 58 58 59 58 56 55 56 57 58 59 60 62 65 68 71 74 78 78 76 74 74 77 80 81 80 79 77 74 75 78 78 77
205 206 204 202 202 202 205 206 208 213 216 217 219 220 220 219 217 207 205 211 210 218 227 229 238 238 229 223 212 195 183 173 85 50 25 28 35 42 50 51 51 52 54 56 57 57 57 56 54 53 54 54 54 53 52 53 53 53 54 54 55 56 58 60 61 60 60 61 60 58 57 56 57 57 57 58 59 63 67 69 71 75 77 76 73 74 76 79 81 82 81 79 75 72 74 74 73
205 205 204 203 202 202 204 204 205 211 214 215 217 214 210 214 217 210 209 211 206 212 223 227 228 224 220 217 212 211 205 199 150 84 38 24 35 43 52 56 55 56 58 60 61 62 61 60 58 56 56 55 55 56 55 54 54 55 55 56 58 58 58 59 61 62 62 62 62 61 59 59 58 58 58 59 61 65 67 68 68 70 72 73 72 73 76 76 77 77 76 75 74 73 71 68 68
204 205 204 203 202 201 201 199 198 203 206 206 205 206 205 209 215 212 211 212 205 207 218 226 225 213 209 212 213 218 217 205 189 136 72 27 30 41 52 61 61 60 62 65 66 67 66 64 62 60 59 57 57 57 57 56 55 55 56 57 58 58 56 58 60 62 63 64 64 63 62 61 61 60 59 60 62 64 66 66 65 66 67 68 70 70 72 74 73 71 68 67 71 75 72 67 68
203 203 203 202 200 199 195 191 192 196 202 204 202 204 204 206 212 211 210 211 207 208 214 220 224 215 207 211 215 221 221 209 198 172 134 43 25 32 45 61 68 66 65 69 71 72 73 70 66 63 62 60 58 57 57 57 56 56 56 56 58 58 57 57 59 61 63 64 64 64 63 63 62 61 62 62 62 62 62 63 63 63 64 64 66 68 68 70 70 69 68 67 67 68 67 65 66
202 203 204 202 200 199 195 192 193 195 201 205 204 204 203 203 208 208 208 211 210 212 215 216 220 220 212 210 217 222 219 211 201 187 186 191 35 23 35 54 70 72 70 71 76 78 78 76 71 66 63 61 59 56 55 55 56 56 55 55 56 57 59 59 60 60 62 63 64 64 64 63 62 63 63 64 64 62 61 62 62 62 62 62 64 67 68 69 69 68 70 72 71 68 67 67 69
202 202 203 202 200 199 198 199 200 201 204 206 206 205 203 203 206 204 204 209 210 210 214 215 218 222 218 210 214 221 218 207 199 194 200 210 213 6 30 46 61 73 75 75 79 82 83 81 77 70 64 62 59 53 51 52 53 54 54 55 55 55 57 60 60 60 60 61 62 64 64 63 62 61 63 64 64 64 63 62 63 63 62 62 63 65 67 70 71 70 72 75 77 77 76 75 75
201 202 202 201 200 198 199 200 201 201 203 205 205 206 205 205 207 205 203 206 209 209 210 212 216 222 221 213 209 217 218 207 196 195 202 211 220 227 4 42 51 63 82 85 82 84 86 85 82 76 67 64 63 54 47 48 49 50 52 54 55 55 55 57 59 60 60 60 61 63 63 63 62 61 62 63 64 65 64 63 63 64 64 63 64 65 67 68 70 72 74 76 80 83 84 84 83
200 201 201 201 199 199 199 199 198 198 200 202 204 206 207 208 209 209 205 204 209 210 205 207 213 218 221 217 211 213 216 210 197 193 200 208 216 226 229 50 45 52 72 96 94 88 89 89 85 81 72 63 63 59 52 48 44 43 46 48 50 53 54 54 57 59 59 60 60 61 62 62 62 62 61 61 62 64 65 64 63 62 63 62 62 62 64 64 67 72 75 78 83 86 88 88 88
200 201 200 200 200 201 201 199 197 197 199 202 205 206 208 210 212 211 206 203 207 210 204 201 208 213 216 219 218 213 213 211 201 195 198 205 213 222 229 225 156 52 54 84 111 102 93 92 89 83 77 65 60 62 61 55 47 42 41 41 43 47 50 52 54 57 59 60 60 61 61 61 61 61 60 59 60 61 63 64 63 62 62 61 59 58 59 59 60 64 68 76 84 86 85 84 86
200 200 200 199 199 201 202 200 200 199 201 204 206 207 208 209 211 210 207 204 205 210 208 203 205 210 212 219 223 217 211 210 205 200 200 203 209 217 226 229 220 184 61 68 125 123 104 94 91 88 83 73 63 62 63 63 56 48 42 38 38 42 46 50 53 55 56 56 59 61 61 61 60 60 60 59 58 58 59 61 61 62 61 60 59 58 56 54 54 56 60 67 74 75 75 76 81
200 201 200 198 198 200 201 202 203 201 202 205 205 206 207 208 208 207 206 205 205 208 211 207 206 209 210 215 222 219 210 207 206 204 204 204 206 215 225 230 230 224 202 115 141 149 130 108 93 90 90 83 72 63 61 63 61 54 49 42 39 40 44 48 52 54 54 52 53 56 58 60 60 59 58 58 57 56 55 55 57 58 59 59 58 57 56 55 53 53 54 57 61 63 65 71 75
199 200 201 199 199 199 200 203 204 202 202 206 206 206 207 208 207 204 204 205 206 207 209 208 207 205 205 209 217 216 208 205 206 206 207 207 206 213 224 231 237 238 230 210 187 187 179 166 144 127 117 100 83 74 66 66 65 61 56 49 43 43 44 47 50 53 54 53 52 52 53 55 57 57 57 56 55 55 54 53 53 54 55 55 56 55 55 55 54 52 51 53 56 60 63 68 72
197 199 200 200 199 199 200 202 203 201 200 203 204 205 207 207 206 203 201 203 207 208 208 208 207 204 204 205 210 212 207 204 206 206 208 209 208 213 222 230 237 243 244 234 215 211 219 216 211 209 195 172 125 94 79 72 72 70 63 54 49 46 45 46 48 49 51 53 54 53 51 51 52 53 55 55 53 53 53 52 51 50 50 51 53 53 53 54 54 53 51 51 53 57 61 67 71
197 197 199 199 199 200 200 201 202 200 198 198 200 202 204 204 204 202 200 201 205 207 207 208 208 206 206 205 204 208 208 207 207 207 208 208 208 213 219 227 234 241 248 247 235 224 225 228 216 205 204 200 201 206 167 81 75 75 64 55 52 48 46 46 47 47 48 49 53 55 53 51 49 48 50 52 52 52 51 50 49 49 49 50 51 51 52 53 54 55 53 51 51 54 58 64 68
196 197 198 198 198 200 200 200 200 199 197 196 198 201 201 201 202 202 202 202 204 205 206 207 208 206 205 204 203 205 209 210 210 210 210 210 210 212 217 224 229 236 244 249 246 235 227 232 229 211 205 207 211 219 225 240 271 12 43 53 52 46 46 48 47 46 46 46 52 56 55 52 49 47 46 47 49 51 50 49 47 47 48 49 50 51 52 53 55 57 57 55 53 53 56 60 62
195 197 199 199 199 200 200 201 200 199 199 198 198 200 202 201 203 204 202 202 203 204 204 205 207 207 202 202 204 205 207 210 211 211 212 212 213 212 215 220 225 232 239 245 249 245 235 232 236 232 225 220 217 219 227 235 249 270 301 351 16 14 27 50 51 47 44 43 49 58 58 53 49 46 45 45 46 49 51 50 47 46 46 47 49 50 51 52 55 58 61 60 58 56 56 58 61
196 198 199 199 200 199 200 202 202 200 201 202 201 202 204 204 206 207 206 205 205 204 204 204 207 211 209 208 209 208 207 208 210 213 214 215 215 215 216 218 223 228 234 239 245 249 244 236 236 241 239 234 229 226 229 232 237 254 274 305 323 328 314 332 59 51 50 49 51 60 61 55 48 44 43 43 44 46 49 50 48 45 44 45 47 50 51 52 53 56 62 65 65 63 61 60 63
197 199 199 200 201 200 200 203 204 204 204 206 207 207 207 208 209 209 209 210 208 204 204 205 207 213 217 218 218 215 211 210 213 217 218 218 218 218 218 220 224 228 232 236 240 245 247 243 239 240 242 241 238 237 239 240 241 243 255 323 320 306 230 253 321 49 49 46 50 62 66 59 48 40 38 38 39 41 43 46 47 45 43 43 45 48 52 54 55 55 59 65 69 71 69 67 68
198 199 200 200 201 201 201 203 204 206 207 209 210 210 209 210 210 210 211 211 208 205 205 205 207 211 215 218 221 222 218 215 216 218 217 219 221 221 220 221 224 228 231 233 236 238 243 245 242 240 242 243 241 240 243 246 250 253 256 289 313 348 133 303 311 70 50 26 27 61 72 67 50 34 28 30 31 34 37 39 42 45 44 43 42 44 49 55 59 59 60 64 70 74 76 75 75
199 199 200 200 200 201 202 203 204 206 207 208 210 211 209 209 209 209 210 209 207 205 205 205 207 208 209 215 220 221 220 216 214 216 217 220 224 225 224 225 227 231 232 232 235 236 237 240 243 242 242 243 243 243 246 248 251 256 258 267 284 291 283 289 279 243 12 8 12 37 60 67 53 32 18 16 20 24 27 30 33 38 41 41 41 42 46 51 57 62 66 69 72 76 79 80 79